Weather History for Chippewa, MI

Change the Weather History Date:

Wednesday, July 17, 2013

  Actual Average Record
Temperature  
Mean Temperature 81 °F -  
Max Temperature 91 °F 77 °F 91 °F (2013)
Min Temperature 71 °F 51 °F 38 °F (1979)
Cooling Degree Days 16    
Growing Degree Days 31 (Base 50)    
Moisture  
Dew Point 71 °F    
Average Humidity 80    
Maximum Humidity 100    
Minimum Humidity 38    
Precipitation  
Precipitation 0.15 in - - ()
Sea Level Pressure  
Sea Level Pressure 30.16 in    
Wind  
Wind Speed 7 mph (WSW)    
Max Wind Speed 16 mph    
Max Gust Speed 23 mph    
Visibility 9 miles    
Events      
Averages and records for this station are not official NWS values.
T = Trace of Precipitation, MM = Missing Value Source: NWS Daily Summary

Daily Weather History Graph

Daily Weather History Graph

Search for Another Location

Airport:

Trip Planner

Search our weather history database for the weather conditions in past years. The results will help you decide how hot, cold, wet, or windy it might be!

Date:

Astronomy

Jul. 17, 2013 Rise Set
Actual Time 6:03 AM EDT 9:24 PM EDT
Civil Twilight 5:26 AM EDT 10:01 PM EDT
Nautical Twilight 4:37 AM EDT 10:49 PM EDT
Astronomical Twilight 3:35 AM EDT 11:50 PM EDT
Moon 4:07 PM EDT (7/17) 1:16 AM EDT (7/17)
Length of Visible Light 16h 35m
Length of Day
15h 21m
Waxing Gibbous, 67% of the Moon is Illuminated
Jul 17
Waxing Gibbous
Jul 22
Full
Jul 29
Last Quarter
Aug 6
New
Aug 14
First Quarter

Hourly Weather History & Observations

Time (EDT) Temp. Heat Index Dew Point Humidity Pressure Visibility Wind Dir Wind Speed Gust Speed Precip Events Conditions
12:15 AM 75.2 °F - 71.6 °F 89% 30.19 in 10.0 mi WSW 8.1 mph - N/A   Clear
12:35 AM 75.2 °F - 71.6 °F 89% 30.19 in 10.0 mi SW 5.8 mph - N/A   Clear
12:55 AM 75.2 °F - 71.6 °F 89% 30.19 in 10.0 mi WSW 8.1 mph - N/A   Clear
1:15 AM 75.2 °F - 71.6 °F 89% 30.18 in 10.0 mi SW 8.1 mph - N/A   Clear
1:35 AM 75.2 °F - 71.6 °F 89% 30.17 in 10.0 mi SW 8.1 mph - N/A   Clear
1:55 AM 75.2 °F - 71.6 °F 89% 30.17 in 10.0 mi SW 5.8 mph - N/A   Clear
2:15 AM 73.4 °F - 71.6 °F 94% 30.16 in 10.0 mi SSW 4.6 mph - N/A   Clear
2:35 AM 73.4 °F - 71.6 °F 94% 30.16 in 10.0 mi SSW 3.5 mph - N/A   Clear
2:55 AM 73.4 °F - 71.6 °F 94% 30.16 in 10.0 mi SW 4.6 mph - N/A   Clear
3:15 AM 73.4 °F - 71.6 °F 94% 30.16 in 10.0 mi SW 5.8 mph - N/A   Partly Cloudy
3:35 AM 73.4 °F - 71.6 °F 94% 30.18 in 9.0 mi North 11.5 mph - N/A   Scattered Clouds
3:55 AM 73.4 °F - 71.6 °F 94% 30.18 in 10.0 mi West 3.5 mph - N/A   Scattered Clouds
4:15 AM 73.4 °F - 71.6 °F 94% 30.18 in 9.0 mi Calm Calm - N/A   Mostly Cloudy
4:35 AM 73.4 °F - 71.6 °F 94% 30.18 in 9.0 mi SSW 3.5 mph - N/A   Overcast
4:55 AM 73.4 °F - 71.6 °F 94% 30.18 in 8.0 mi SSW 3.5 mph - N/A   Mostly Cloudy
5:15 AM 73.4 °F - 71.6 °F 94% 30.18 in 6.0 mi SW 3.5 mph - N/A   Partly Cloudy
5:35 AM 71.6 °F - 71.6 °F 100% 30.18 in 4.0 mi SW 5.8 mph - N/A   Clear
5:55 AM 71.6 °F - 71.6 °F 100% 30.18 in 2.5 mi SW 4.6 mph - N/A   Partly Cloudy
6:15 AM 71.6 °F - 71.6 °F 100% 30.18 in 1.5 mi SW 4.6 mph - N/A   Mostly Cloudy
6:35 AM 71.6 °F - 71.6 °F 100% 30.18 in 1.5 mi SW 3.5 mph - N/A   Mostly Cloudy
6:55 AM 71.6 °F - 71.6 °F 100% 30.18 in 1.8 mi SW 4.6 mph - N/A   Scattered Clouds
7:15 AM 71.6 °F - 71.6 °F 100% 30.18 in 2.0 mi SW 5.8 mph - N/A   Clear
7:35 AM 71.6 °F - 71.6 °F 100% 30.19 in 3.0 mi WSW 4.6 mph - N/A   Clear
7:55 AM 73.4 °F - 71.6 °F 94% 30.19 in 5.0 mi WSW 6.9 mph - N/A   Clear
8:15 AM 75.2 °F - 71.6 °F 89% 30.19 in 9.0 mi WSW 8.1 mph - N/A   Partly Cloudy
8:35 AM 75.2 °F - 71.6 °F 89% 30.19 in 7.0 mi West 5.8 mph - N/A   Partly Cloudy
8:55 AM 78.8 °F - 71.6 °F 78% 30.19 in 10.0 mi West 9.2 mph - N/A   Clear
9:15 AM 80.6 °F 84.6 °F 71.6 °F 74% 30.19 in 10.0 mi West 5.8 mph - N/A   Clear
9:35 AM 80.6 °F 84.6 °F 71.6 °F 74% 30.20 in 10.0 mi West 8.1 mph - N/A   Clear
9:55 AM 82.4 °F 88.2 °F 73.4 °F 74% 30.20 in 10.0 mi West 5.8 mph - N/A   Clear
10:15 AM 82.4 °F 87.2 °F 71.6 °F 70% 30.19 in 10.0 mi West 4.6 mph - N/A   Clear
10:35 AM 84.2 °F 89.6 °F 71.6 °F 66% 30.19 in 10.0 mi WSW 4.6 mph - N/A   Clear
10:55 AM 86.0 °F 91.8 °F 71.6 °F 62% 30.19 in 10.0 mi West 9.2 mph - N/A   Clear
11:15 AM 86.0 °F 91.8 °F 71.6 °F 62% 30.18 in 10.0 mi WSW 6.9 mph - N/A   Clear
11:35 AM 84.2 °F 89.6 °F 71.6 °F 66% 30.18 in 10.0 mi North 8.1 mph - N/A   Mostly Cloudy
11:55 AM 84.2 °F 89.6 °F 71.6 °F 66% 30.18 in 10.0 mi NNW 10.4 mph 16.1 mph N/A   Scattered Clouds
12:15 PM 86.0 °F 91.8 °F 71.6 °F 62% 30.19 in 10.0 mi NNW 9.2 mph 16.1 mph N/A   Clear
12:35 PM 86.0 °F 91.8 °F 71.6 °F 62% 30.18 in 10.0 mi North 6.9 mph - N/A   Clear
12:55 PM 87.8 °F 93.8 °F 71.6 °F 58% 30.18 in 10.0 mi NW 10.4 mph - N/A   Clear
1:15 PM 87.8 °F 93.8 °F 71.6 °F 58% 30.17 in 10.0 mi WNW 8.1 mph - N/A   Clear
1:35 PM 87.8 °F 92.6 °F 69.8 °F 55% 30.17 in 10.0 mi WNW 3.5 mph - N/A   Clear
1:55 PM 89.6 °F 94.7 °F 69.8 °F 52% 30.16 in 10.0 mi NW 6.9 mph - N/A   Clear
2:15 PM 89.6 °F 92.2 °F 66.2 °F 46% 30.15 in 10.0 mi WNW 13.8 mph 19.6 mph N/A   Partly Cloudy
2:35 PM 91.4 °F 94.0 °F 66.2 °F 43% 30.15 in 10.0 mi West 8.1 mph - N/A   Scattered Clouds
2:55 PM 91.4 °F 92.1 °F 62.6 °F 38% 30.13 in 10.0 mi West 16.1 mph 23.0 mph N/A   Scattered Clouds
3:15 PM 91.4 °F 96.8 °F 69.8 °F 49% 30.13 in 10.0 mi WSW 12.7 mph 18.4 mph N/A   Mostly Cloudy
3:35 PM 89.6 °F 94.7 °F 69.8 °F 52% 30.13 in 10.0 mi WSW 11.5 mph 19.6 mph N/A   Scattered Clouds
3:55 PM 89.6 °F 94.7 °F 69.8 °F 52% 30.12 in 10.0 mi SW 8.1 mph 18.4 mph N/A   Mostly Cloudy
4:15 PM 87.8 °F 92.6 °F 69.8 °F 55% 30.12 in 10.0 mi WSW 9.2 mph 20.7 mph N/A   Overcast
4:35 PM 87.8 °F 92.6 °F 69.8 °F 55% 30.11 in 10.0 mi WNW 10.4 mph - N/A   Overcast
4:55 PM 82.4 °F 86.3 °F 69.8 °F 66% 30.12 in 4.0 mi North 8.1 mph 21.9 mph 0.15 in   Overcast
5:15 PM 80.6 °F 84.6 °F 71.6 °F 74% 30.12 in 10.0 mi West 6.9 mph - N/A   Overcast
5:35 PM 80.6 °F 84.6 °F 71.6 °F 74% 30.14 in 10.0 mi WNW 11.5 mph - N/A   Overcast
5:55 PM 78.8 °F - 71.6 °F 78% 30.15 in 10.0 mi WNW 10.4 mph - N/A   Scattered Clouds
6:15 PM 78.8 °F - 71.6 °F 78% 30.16 in 10.0 mi West 13.8 mph 17.3 mph N/A   Partly Cloudy
6:35 PM 77.0 °F - 71.6 °F 83% 30.15 in 10.0 mi West 12.7 mph 16.1 mph N/A   Partly Cloudy
6:55 PM 75.2 °F - 71.6 °F 89% 30.16 in 10.0 mi West 8.1 mph - N/A   Scattered Clouds
7:15 PM 75.2 °F - 71.6 °F 89% 30.15 in 10.0 mi West 11.5 mph 17.3 mph N/A   Partly Cloudy
7:35 PM 75.2 °F - 69.8 °F 83% 30.15 in 10.0 mi WSW 8.1 mph - N/A   Clear
7:55 PM 75.2 °F - 69.8 °F 83% 30.13 in 10.0 mi WSW 4.6 mph - N/A   Clear
8:15 PM 75.2 °F - 69.8 °F 83% 30.13 in 10.0 mi WSW 10.4 mph - N/A   Clear
8:35 PM 75.2 °F - 69.8 °F 83% 30.13 in 10.0 mi WSW 9.2 mph - N/A   Clear
8:55 PM 75.2 °F - 69.8 °F 83% 30.12 in 10.0 mi WSW 8.1 mph - N/A   Clear
9:15 PM 73.4 °F - 69.8 °F 88% 30.12 in 10.0 mi West 9.2 mph - N/A   Clear
9:35 PM 73.4 °F - 69.8 °F 88% 30.11 in 10.0 mi West 8.1 mph - N/A   Mostly Cloudy
9:55 PM 73.4 °F - 69.8 °F 88% 30.11 in 10.0 mi West 6.9 mph - N/A   Partly Cloudy
10:15 PM 73.4 °F - 69.8 °F 88% 30.11 in 10.0 mi West 8.1 mph - N/A   Clear
10:35 PM 73.4 °F - 69.8 °F 88% 30.11 in 10.0 mi West 6.9 mph - N/A   Clear
10:55 PM 73.4 °F - 69.8 °F 88% 30.11 in 10.0 mi WSW 4.6 mph - N/A   Clear
11:15 PM 71.6 °F - 69.8 °F 94% 30.11 in 10.0 mi WSW 4.6 mph - N/A   Clear
11:35 PM 71.6 °F - 69.8 °F 94% 30.11 in 10.0 mi SW 4.6 mph - N/A   Clear
11:55 PM 71.6 °F - 69.8 °F 94% 30.11 in 10.0 mi SW 4.6 mph - N/A   Partly Cloudy